Location: Czekanka
(50.4925°N, 19.2643°E)
Time: 07:51:41
(UTC+00:00)

SL-16 R/B - Pass Details

Date: 24 September 2024
Orbit: 842 x 846 km, 71.0° (Epoch: 05 October)

Event Time Altitude Azimuth Distance (km) Brightness Sun altitude
Rises 01:10:37 0° 332° (NNW) 3,413 5.5 -30.2°
Reaches altitude 10° 01:13:25 10° 344° (NNW) 2,474 4.9 -29.9°
Maximum altitude 01:18:19 29° 44° (NE) 1,505 4.1 -29.3°
Drops below altitude 10° 01:23:12 10° 104° (ESE) 2,462 5.0 -28.7°
Sets 01:25:58 0° 115° (ESE) 3,394 5.7 -28.4°
